SAS4107 ENBO-ENGM

Flight info

Callsign SAS4107
Flight time N/A
Altitude 34000
Route DISMU DCT SOMUB DCT BELGU
Aircraft A320/M-SDE3FGHIRWY/LB1

Departure

Time 2026-04-26 10:54
Airport Bodø Airport (ENBO)

Arrival

Time N/A
Airport Oslo-Gardermoen International Airport (ENGM)
Time Latitude Longitude Altitude Speed Heading
2026-04-26 10:15 67.27189 14.36940 43 ft 0 kts 299°
2026-04-26 10:46 67.27189 14.36942 45 ft 1 kts 299°
2026-04-26 10:47 67.27177 14.36998 41 ft 4 kts 294°
2026-04-26 10:47 67.27167 14.37062 42 ft 4 kts 291°
2026-04-26 10:47 67.27157 14.37125 45 ft 2 kts 296°
2026-04-26 10:47 67.27147 14.37176 45 ft 4 kts 295°
2026-04-26 10:48 67.27141 14.37210 44 ft 0 kts 298°
2026-04-26 10:50 67.27138 14.37199 43 ft 1 kts 246°
2026-04-26 10:50 67.27106 14.37205 43 ft 5 kts 124°
2026-04-26 10:51 67.27113 14.37318 46 ft 8 kts 77°
2026-04-26 10:51 67.27160 14.37945 45 ft 18 kts 83°
2026-04-26 10:51 67.27161 14.38175 49 ft 4 kts 90°
2026-04-26 10:52 67.27161 14.38227 49 ft 6 kts 90°
2026-04-26 10:52 67.27139 14.38358 49 ft 10 kts 144°
2026-04-26 10:52 67.27081 14.38379 48 ft 6 kts 204°
2026-04-26 10:52 67.27070 14.38303 49 ft 5 kts 257°
2026-04-26 10:53 67.27043 14.37979 47 ft 47 kts 258°
2026-04-26 10:53 67.26925 14.36562 41 ft 111 kts 258°
2026-04-26 10:53 67.26723 14.34205 155 ft 146 kts 258°
2026-04-26 10:54 67.26343 14.29040 1341 ft 154 kts 265°
2026-04-26 10:54 67.26167 14.26096 1609 ft 177 kts 266°
2026-04-26 10:54 67.25967 14.22735 1915 ft 199 kts 264°
2026-04-26 10:54 67.25635 14.19028 2246 ft 228 kts 247°
2026-04-26 10:55 67.24523 14.15793 2865 ft 253 kts 221°
2026-04-26 10:55 67.23018 14.13280 3761 ft 261 kts 214°
2026-04-26 10:55 67.21405 14.11029 4730 ft 265 kts 211°
2026-04-26 10:55 67.19758 14.08784 5633 ft 270 kts 212°
2026-04-26 10:56 67.18122 14.06477 6561 ft 273 kts 212°
2026-04-26 10:56 67.16462 14.04045 7438 ft 276 kts 214°
2026-04-26 10:56 67.14799 14.01526 8314 ft 279 kts 214°
2026-04-26 10:56 67.13127 13.98939 9202 ft 282 kts 216°
2026-04-26 10:57 67.11427 13.96335 10056 ft 286 kts 211°
2026-04-26 10:57 67.09588 13.93960 10431 ft 307 kts 211°
2026-04-26 10:57 67.07633 13.91358 10805 ft 323 kts 211°
2026-04-26 10:57 67.05629 13.88655 11504 ft 328 kts 210°
2026-04-26 10:58 67.03599 13.85927 12234 ft 331 kts 210°
2026-04-26 10:58 67.01551 13.83176 12975 ft 335 kts 211°
2026-04-26 10:58 66.99467 13.80416 13719 ft 338 kts 211°
2026-04-26 10:58 66.97370 13.77602 14383 ft 342 kts 211°
2026-04-26 10:59 66.95246 13.74772 14979 ft 347 kts 211°
2026-04-26 10:59 66.93069 13.71943 15444 ft 356 kts 211°
2026-04-26 10:59 66.90820 13.69120 15930 ft 363 kts 211°
2026-04-26 10:59 66.88523 13.66306 16530 ft 368 kts 211°
2026-04-26 11:00 66.86218 13.63550 17092 ft 374 kts 211°
2026-04-26 11:00 66.83834 13.60762 17683 ft 380 kts 211°
2026-04-26 11:00 66.81404 13.57990 18255 ft 386 kts 211°
2026-04-26 11:00 66.78978 13.55275 18781 ft 391 kts 210°
2026-04-26 11:01 66.76461 13.52503 19297 ft 396 kts 211°
2026-04-26 11:01 66.73915 13.49740 19828 ft 400 kts 210°
2026-04-26 11:01 66.71329 13.46975 20363 ft 405 kts 210°
2026-04-26 11:01 66.68737 13.44144 20839 ft 406 kts 217°
2026-04-26 11:02 66.66244 13.40816 21437 ft 411 kts 212°
2026-04-26 11:02 66.63572 13.38018 21795 ft 419 kts 211°
2026-04-26 11:02 66.60846 13.35313 22314 ft 423 kts 210°
2026-04-26 11:02 66.58091 13.32619 22863 ft 427 kts 210°
2026-04-26 11:03 66.55298 13.29908 23359 ft 432 kts 210°
2026-04-26 11:03 66.52475 13.27195 23828 ft 436 kts 210°
2026-04-26 11:03 66.49621 13.24487 24262 ft 439 kts 210°
2026-04-26 11:03 66.46789 13.21821 24696 ft 442 kts 210°
2026-04-26 11:04 66.43898 13.19112 25110 ft 445 kts 210°
2026-04-26 11:04 66.40984 13.16411 25567 ft 448 kts 209°
2026-04-26 11:04 66.37912 13.14449 25993 ft 461 kts 200°
2026-04-26 11:04 66.34755 13.12852 26384 ft 464 kts 200°
2026-04-26 11:05 66.31582 13.11271 26704 ft 466 kts 200°
2026-04-26 11:05 66.28384 13.09693 27098 ft 469 kts 200°
2026-04-26 11:05 66.25175 13.08121 27468 ft 472 kts 200°
2026-04-26 11:05 66.21946 13.06542 27849 ft 474 kts 200°
2026-04-26 11:06 66.18693 13.04952 28260 ft 477 kts 200°
2026-04-26 11:06 66.16533 13.03898 28509 ft 478 kts 200°
2026-04-26 11:06 66.12147 13.01773 29023 ft 482 kts 200°
2026-04-26 11:06 66.08843 13.00173 29382 ft 485 kts 200°
2026-04-26 11:07 66.05523 12.98564 29723 ft 487 kts 200°
2026-04-26 11:07 66.02189 12.96952 30037 ft 490 kts 200°
2026-04-26 11:07 65.98883 12.95345 30419 ft 491 kts 200°
2026-04-26 11:07 65.95466 12.93778 30743 ft 494 kts 199°
2026-04-26 11:08 65.92089 12.92160 31050 ft 495 kts 199°
2026-04-26 11:08 65.88701 12.90531 31384 ft 497 kts 199°
2026-04-26 11:08 65.85315 12.88909 31859 ft 495 kts 199°
2026-04-26 11:08 65.81980 12.87317 32257 ft 496 kts 199°
2026-04-26 11:09 65.78586 12.85698 32627 ft 496 kts 199°
2026-04-26 11:09 65.75203 12.84091 33056 ft 496 kts 199°
2026-04-26 11:09 65.71819 12.82497 33480 ft 495 kts 198°
2026-04-26 11:09 65.68454 12.80929 33902 ft 493 kts 198°
2026-04-26 11:10 65.65081 12.79359 34118 ft 493 kts 198°
2026-04-26 11:10 65.61734 12.77810 34164 ft 488 kts 198°
2026-04-26 11:10 65.55094 12.74730 34168 ft 485 kts 198°
2026-04-26 11:11 65.48476 12.71647 34172 ft 484 kts 198°
2026-04-26 11:11 65.41848 12.68572 34176 ft 484 kts 198°
2026-04-26 11:12 65.35286 12.65569 34162 ft 483 kts 198°
2026-04-26 11:12 65.28692 12.62588 34171 ft 482 kts 198°
2026-04-26 11:13 65.22098 12.59583 34168 ft 481 kts 198°
2026-04-26 11:13 65.15517 12.56599 34169 ft 481 kts 198°
2026-04-26 11:14 65.08925 12.53632 34134 ft 481 kts 198°
2026-04-26 11:14 65.03463 12.51173 34148 ft 480 kts 198°
2026-04-26 11:15 64.95778 12.47760 34168 ft 481 kts 198°
2026-04-26 11:15 64.89197 12.44877 34177 ft 480 kts 198°
2026-04-26 11:16 64.82669 12.41993 34183 ft 480 kts 198°
2026-04-26 11:16 64.76107 12.39113 34141 ft 480 kts 197°
2026-04-26 11:17 64.69546 12.36266 34172 ft 479 kts 197°
2026-04-26 11:17 64.62882 12.33341 34183 ft 496 kts 197°
2026-04-26 11:18 64.57208 12.30888 34179 ft 500 kts 197°
2026-04-26 11:18 64.50345 12.27963 34177 ft 501 kts 197°
2026-04-26 11:19 64.43490 12.25033 34189 ft 501 kts 197°
2026-04-26 11:19 64.36630 12.22099 34189 ft 501 kts 197°
2026-04-26 11:20 64.29776 12.19187 34191 ft 501 kts 197°
2026-04-26 11:20 64.22913 12.16306 34189 ft 501 kts 197°
2026-04-26 11:21 64.16048 12.13431 34200 ft 501 kts 197°
2026-04-26 11:21 64.09181 12.10573 34209 ft 501 kts 196°
2026-04-26 11:22 64.02360 12.07740 34208 ft 501 kts 197°
2026-04-26 11:22 63.95492 12.04910 34214 ft 501 kts 196°
2026-04-26 11:23 63.88622 12.02097 34213 ft 501 kts 196°
2026-04-26 11:23 63.81723 11.99272 34191 ft 505 kts 196°
2026-04-26 11:24 63.74789 11.96431 34199 ft 506 kts 196°
2026-04-26 11:24 63.67833 11.93636 34217 ft 507 kts 196°
2026-04-26 11:25 63.60887 11.90859 34234 ft 507 kts 196°
2026-04-26 11:25 63.53930 11.88103 34199 ft 509 kts 193°
2026-04-26 11:26 63.50406 11.87819 34212 ft 517 kts 181°
2026-04-26 11:26 63.46807 11.88310 34223 ft 517 kts 181°
2026-04-26 11:26 63.39620 11.89359 34232 ft 518 kts 180°
2026-04-26 11:27 63.32428 11.90448 34240 ft 518 kts 180°
2026-04-26 11:27 63.25230 11.91599 34240 ft 519 kts 179°
2026-04-26 11:28 63.18043 11.93217 34225 ft 518 kts 179°
2026-04-26 11:28 63.10902 11.94532 34242 ft 517 kts 180°
2026-04-26 11:29 63.03728 11.95468 34244 ft 516 kts 181°
2026-04-26 11:29 62.96551 11.96320 34246 ft 516 kts 181°
2026-04-26 11:30 62.90590 11.97119 34217 ft 516 kts 181°
2026-04-26 11:30 62.82199 11.98316 34247 ft 516 kts 181°
2026-04-26 11:31 62.75023 11.99319 34245 ft 516 kts 181°
2026-04-26 11:31 62.67857 12.00282 34233 ft 516 kts 181°
2026-04-26 11:32 62.60735 12.01239 34201 ft 516 kts 181°
2026-04-26 11:32 62.53543 12.02200 34219 ft 518 kts 181°
2026-04-26 11:33 62.46336 12.03168 34224 ft 519 kts 181°
2026-04-26 11:33 62.39125 12.04123 34229 ft 519 kts 181°
2026-04-26 11:34 62.31913 12.05080 34236 ft 520 kts 181°
2026-04-26 11:34 62.24719 12.06026 34209 ft 521 kts 181°
2026-04-26 11:35 62.17478 12.06998 34220 ft 522 kts 181°
2026-04-26 11:35 62.10221 12.07968 34228 ft 522 kts 181°
2026-04-26 11:36 62.06588 12.08445 33997 ft 523 kts 181°
2026-04-26 11:36 62.02960 12.08913 33583 ft 522 kts 181°
2026-04-26 11:36 61.99334 12.09374 33136 ft 522 kts 181°
2026-04-26 11:36 61.95701 12.09841 32737 ft 523 kts 181°
2026-04-26 11:37 61.92105 12.10304 32344 ft 524 kts 181°
2026-04-26 11:37 61.88459 12.10774 31950 ft 524 kts 181°
2026-04-26 11:37 61.84810 12.11251 31565 ft 524 kts 181°
2026-04-26 11:37 61.81169 12.11721 31187 ft 524 kts 181°
2026-04-26 11:38 61.77524 12.12182 30813 ft 524 kts 181°
2026-04-26 11:38 61.73877 12.12643 30444 ft 524 kts 181°
2026-04-26 11:38 61.70234 12.13100 30038 ft 524 kts 181°
2026-04-26 11:38 61.66598 12.13558 29631 ft 524 kts 181°
2026-04-26 11:39 61.62964 12.14018 29204 ft 523 kts 181°
2026-04-26 11:39 61.59340 12.14477 28779 ft 520 kts 181°
2026-04-26 11:39 61.55732 12.14939 28365 ft 517 kts 181°
2026-04-26 11:39 61.52194 12.15398 27963 ft 514 kts 181°
2026-04-26 11:40 61.48639 12.15858 27561 ft 511 kts 181°
2026-04-26 11:40 61.45098 12.16313 27162 ft 508 kts 181°
2026-04-26 11:40 61.41572 12.16758 26767 ft 505 kts 181°
2026-04-26 11:40 61.38077 12.17190 26365 ft 502 kts 181°
2026-04-26 11:41 61.34600 12.17614 25949 ft 498 kts 182°
2026-04-26 11:42 61.11127 12.20505 23323 ft 442 kts 182°
2026-04-26 11:43 61.08101 12.20890 22907 ft 430 kts 182°
2026-04-26 11:43 61.05155 12.21250 22499 ft 419 kts 182°
2026-04-26 11:43 61.02277 12.21545 22083 ft 406 kts 186°
2026-04-26 11:43 60.99544 12.21110 21703 ft 393 kts 196°
2026-04-26 11:44 60.96867 12.20240 21332 ft 386 kts 196°
2026-04-26 11:44 60.94228 12.19394 20965 ft 382 kts 196°
2026-04-26 11:44 60.91611 12.18561 20606 ft 379 kts 196°
2026-04-26 11:44 60.89007 12.17735 20240 ft 376 kts 196°
2026-04-26 11:45 60.86429 12.16920 19892 ft 374 kts 195°
2026-04-26 11:45 60.83864 12.16116 19547 ft 372 kts 195°
2026-04-26 11:45 60.81315 12.15316 19201 ft 369 kts 195°
2026-04-26 11:45 60.78781 12.14525 18865 ft 367 kts 195°
2026-04-26 11:46 60.76259 12.13739 18494 ft 366 kts 196°
2026-04-26 11:46 60.73774 12.12960 18115 ft 365 kts 195°
2026-04-26 11:46 60.71266 12.12173 17729 ft 363 kts 195°
2026-04-26 11:46 60.68779 12.11395 17350 ft 360 kts 195°
2026-04-26 11:47 60.66302 12.10621 16974 ft 358 kts 195°
2026-04-26 11:47 60.63844 12.09859 16606 ft 357 kts 195°
2026-04-26 11:47 60.61392 12.09099 16240 ft 355 kts 194°
2026-04-26 11:47 60.58955 12.08344 15879 ft 353 kts 194°
2026-04-26 11:48 60.56531 12.07594 15521 ft 351 kts 194°
2026-04-26 11:48 60.54122 12.06851 15206 ft 348 kts 194°
2026-04-26 11:48 60.53345 12.06612 15108 ft 347 kts 194°